| time (UTC) | temp F | wind direction | speed MPH | gust MPH | rain 1hr in | rain 24hr in | rain mn in | humidity % | barometer mb |
| 20260506035641 | 50 | 15 | 5.0 | 8.0 | 0.00 | 0.00 | 0.00 | 44 | 1012.9 |
| 20260506035137 | 50 | 335 | 9.0 | 13.0 | 0.00 | 0.00 | 0.00 | 43 | 1013.0 |
| 20260506034635 | 50 | 17 | 3.0 | 6.0 | 0.00 | 0.00 | 0.00 | 44 | 1013.0 |
| 20260506034132 | 50 | 318 | 3.0 | 7.0 | 0.00 | 0.00 | 0.00 | 43 | 1013.1 |
| 20260506033629 | 50 | 23 | 4.0 | 6.0 | 0.00 | 0.00 | 0.00 | 45 | 1012.8 |
| 20260506033126 | 50 | 19 | 4.0 | 9.0 | 0.00 | 0.00 | 0.00 | 44 | 1012.9 |
| 20260506032623 | 50 | 345 | 4.0 | 7.0 | 0.00 | 0.00 | 0.00 | 44 | 1012.7 |
| 20260506032120 | 50 | 357 | 3.0 | 6.0 | 0.00 | 0.00 | 0.00 | 45 | 1012.7 |
| 20260506031617 | 51 | 347 | 3.0 | 9.0 | 0.00 | 0.00 | 0.00 | 45 | 1012.7 |
| 20260506031114 | 50 | 359 | 5.0 | 7.0 | 0.00 | 0.00 | 0.00 | 44 | 1012.6 |
| 20260506030613 | 50 | 273 | 2.0 | 7.0 | 0.00 | 0.00 | 0.00 | 44 | 1012.6 |
| 20260506030109 | 51 | 307 | 4.0 | 6.0 | 0.00 | 0.00 | 0.00 | 43 | 1012.7 |
| 20260506025606 | 51 | 300 | 2.0 | 7.0 | 0.00 | 0.00 | 0.00 | 43 | 1012.4 |
| 20260506025102 | 51 | 293 | 3.0 | 5.0 | 0.00 | 0.00 | 0.00 | 43 | 1012.4 |
| 20260506024600 | 51 | 269 | 4.0 | 7.0 | 0.00 | 0.00 | 0.00 | 42 | 1012.3 |
| 20260506024056 | 52 | 302 | 2.0 | 5.0 | 0.00 | 0.00 | 0.00 | 41 | 1012.2 |
| 20260506023552 | 52 | 310 | 1.0 | 6.0 | 0.00 | 0.00 | 0.00 | 42 | 1012.1 |
| 20260506023050 | 52 | 334 | 2.0 | 2.0 | 0.00 | 0.00 | 0.00 | 41 | 1012.1 |
| 20260506022547 | 52 | 306 | 4.0 | 6.0 | 0.00 | 0.00 | 0.00 | 40 | 1012.0 |
| 20260506022044 | 52 | 299 | 0.0 | 3.0 | 0.00 | 0.00 | 0.00 | 40 | 1011.9 |
| 20260506021541 | 53 | 296 | 3.0 | 7.0 | 0.00 | 0.00 | 0.00 | 39 | 1012.0 |
| 20260506021039 | 53 | 307 | 4.0 | 6.0 | 0.00 | 0.00 | 0.00 | 39 | 1011.9 |
| 20260506020536 | 53 | 308 | 4.0 | 6.0 | 0.00 | 0.00 | 0.00 | 39 | 1011.9 |
| 20260506020033 | 53 | 312 | 1.0 | 8.0 | 0.00 | 0.00 | 0.00 | 39 | 1011.8 |
| 20260506015531 | 53 | 286 | 3.0 | 6.0 | 0.00 | 0.00 | 0.00 | 39 | 1011.9 |
| 20260506015027 | 53 | 314 | 5.0 | 6.0 | 0.00 | 0.00 | 0.00 | 39 | 1011.7 |
| 20260506014525 | 53 | 313 | 3.0 | 6.0 | 0.00 | 0.00 | 0.00 | 39 | 1011.8 |
| 20260506014021 | 53 | 305 | 6.0 | 8.0 | 0.00 | 0.00 | 0.00 | 39 | 1011.7 |
| 20260506013519 | 53 | 325 | 2.0 | 7.0 | 0.00 | 0.00 | 0.00 | 39 | 1011.7 |
| 20260506013016 | 54 | 313 | 5.0 | 6.0 | 0.00 | 0.00 | 0.00 | 39 | 1011.6 |
| 20260506012512 | 54 | 295 | 2.0 | 8.0 | 0.00 | 0.00 | 0.00 | 39 | 1011.6 |
| 20260506012009 | 54 | 319 | 5.0 | 15.0 | 0.00 | 0.00 | 0.00 | 38 | 1011.7 |
| 20260506011506 | 54 | 303 | 3.0 | 7.0 | 0.00 | 0.00 | 0.00 | 39 | 1011.6 |
| 20260506011002 | 54 | 331 | 3.0 | 7.0 | 0.00 | 0.00 | 0.00 | 38 | 1011.6 |
| 20260506010502 | 54 | 301 | 6.0 | 10.0 | 0.00 | 0.00 | 0.00 | 38 | 1011.5 |
| 20260506005957 | 54 | 277 | 7.0 | 10.0 | 0.00 | 0.00 | 0.00 | 37 | 1011.4 |
| 20260506005455 | 55 | 258 | 5.0 | 7.0 | 0.00 | 0.00 | 0.00 | 38 | 1011.3 |
| 20260506004950 | 55 | 31 | 6.0 | 8.0 | 0.00 | 0.00 | 0.00 | 37 | 1011.2 |
| 20260506004448 | 55 | 266 | 4.0 | 11.0 | 0.00 | 0.00 | 0.00 | 39 | 1011.2 |
| 20260506003944 | 55 | 313 | 7.0 | 10.0 | 0.00 | 0.00 | 0.00 | 39 | 1010.9 |
| 20260506003440 | 55 | 300 | 0.0 | 2.0 | 0.00 | 0.00 | 0.00 | 39 | 1010.9 |
| 20260506002931 | 55 | 279 | 6.0 | 8.0 | 0.00 | 0.00 | 0.00 | 39 | 1010.8 |
| 20260506002428 | 55 | 278 | 5.0 | 7.0 | 0.00 | 0.00 | 0.00 | 37 | 1010.8 |
| 20260506001923 | 55 | 315 | 5.0 | 8.0 | 0.00 | 0.00 | 0.00 | 37 | 1010.9 |
| 20260506001421 | 56 | 304 | 4.0 | 6.0 | 0.00 | 0.00 | 0.00 | 38 | 1010.8 |
| 20260506000918 | 56 | 282 | 3.0 | 5.0 | 0.00 | 0.00 | 0.00 | 38 | 1010.7 |
| 20260506000416 | 56 | 335 | 6.0 | 9.0 | 0.00 | 0.00 | 0.00 | 38 | 1010.7 |
| 20260505235912 | 56 | 305 | 7.0 | 14.0 | 0.00 | 0.00 | 0.00 | 37 | 1010.8 |
| 20260505235410 | 56 | 314 | 3.0 | 7.0 | 0.00 | 0.00 | 0.00 | 37 | 1010.9 |
| 20260505234907 | 56 | 338 | 6.0 | 10.0 | 0.00 | 0.00 | 0.00 | 36 | 1010.7 |
| 20260505234404 | 56 | 308 | 5.0 | 8.0 | 0.00 | 0.00 | 0.00 | 35 | 1010.6 |
| 20260505233901 | 56 | 253 | 5.0 | 10.0 | 0.00 | 0.00 | 0.00 | 35 | 1010.6 |
| 20260505233359 | 56 | 305 | 6.0 | 8.0 | 0.00 | 0.00 | 0.00 | 35 | 1010.7 |
| 20260505232856 | 57 | 321 | 3.0 | 9.0 | 0.00 | 0.00 | 0.00 | 36 | 1010.6 |
| 20260505232354 | 57 | 358 | 5.0 | 9.0 | 0.00 | 0.00 | 0.00 | 36 | 1010.5 |
| 20260505231850 | 57 | 316 | 8.0 | 11.0 | 0.00 | 0.00 | 0.00 | 36 | 1010.4 |
| 20260505231348 | 57 | 356 | 3.0 | 9.0 | 0.00 | 0.00 | 0.00 | 36 | 1010.5 |
| 20260505230846 | 57 | 311 | 1.0 | 9.0 | 0.00 | 0.00 | 0.00 | 35 | 1010.5 |
| 20260505230343 | 57 | 282 | 8.0 | 16.0 | 0.00 | 0.00 | 0.00 | 34 | 1010.4 |
| 20260505225839 | 57 | 302 | 6.0 | 13.0 | 0.00 | 0.00 | 0.00 | 35 | 1010.3 |
| 20260505225336 | 57 | 341 | 3.0 | 13.0 | 0.00 | 0.00 | 0.00 | 35 | 1010.2 |
| 20260505224830 | 57 | 326 | 8.0 | 11.0 | 0.00 | 0.00 | 0.00 | 35 | 1010.4 |
| 20260505224329 | 57 | 16 | 5.0 | 15.0 | 0.00 | 0.00 | 0.00 | 35 | 1010.2 |
| 20260505223826 | 58 | 10 | 4.0 | 15.0 | 0.00 | 0.00 | 0.00 | 36 | 1010.4 |
| 20260505223323 | 58 | 336 | 4.0 | 14.0 | 0.00 | 0.00 | 0.00 | 35 | 1010.3 |
| 20260505222818 | 58 | 20 | 5.0 | 11.0 | 0.00 | 0.00 | 0.00 | 34 | 1010.3 |
| 20260505222315 | 59 | 338 | 8.0 | 13.0 | 0.00 | 0.00 | 0.00 | 34 | 1010.2 |
| 20260505221812 | 59 | 6 | 5.0 | 9.0 | 0.00 | 0.00 | 0.00 | 36 | 1010.2 |
| 20260505221308 | 59 | 329 | 9.0 | 13.0 | 0.00 | 0.00 | 0.00 | 34 | 1009.9 |
| 20260505220806 | 59 | 283 | 7.0 | 15.0 | 0.00 | 0.00 | 0.00 | 36 | 1010.0 |
| 20260505220303 | 59 | 292 | 4.0 | 8.0 | 0.00 | 0.00 | 0.00 | 41 | 1009.8 |
| 20260505215801 | 58 | 256 | 7.0 | 9.0 | 0.00 | 0.00 | 0.00 | 40 | 1009.7 |
| 20260505215258 | 58 | 221 | 6.0 | 8.0 | 0.00 | 0.00 | 0.00 | 43 | 1010.0 |
| 20260505214756 | 58 | 249 | 5.0 | 7.0 | 0.00 | 0.00 | 0.00 | 41 | 1010.2 |
| 20260505214254 | 58 | 243 | 4.0 | 6.0 | 0.00 | 0.00 | 0.00 | 41 | 1009.9 |
| 20260505213751 | 58 | 284 | 6.0 | 7.0 | 0.00 | 0.00 | 0.00 | 40 | 1010.2 |
| 20260505213248 | 58 | 252 | 3.0 | 8.0 | 0.00 | 0.00 | 0.00 | 40 | 1010.3 |
| 20260505212744 | 58 | 217 | 6.0 | 7.0 | 0.00 | 0.00 | 0.00 | 43 | 1010.3 |
| 20260505212242 | 58 | 278 | 1.0 | 8.0 | 0.00 | 0.00 | 0.00 | 42 | 1010.3 |
| 20260505211738 | 58 | 246 | 4.0 | 11.0 | 0.00 | 0.00 | 0.00 | 41 | 1010.4 |
| 20260505211236 | 59 | 262 | 2.0 | 3.0 | 0.00 | 0.00 | 0.00 | 43 | 1010.4 |
| 20260505210732 | 58 | 281 | 1.0 | 5.0 | 0.00 | 0.00 | 0.00 | 43 | 1010.4 |
| 20260505210229 | 58 | 262 | 3.0 | 5.0 | 0.00 | 0.00 | 0.00 | 41 | 1010.4 |
| 20260505205726 | 57 | 298 | 1.0 | 2.0 | 0.00 | 0.00 | 0.00 | 42 | 1010.6 |
| 20260505205224 | 58 | 295 | 3.0 | 6.0 | 0.00 | 0.00 | 0.00 | 41 | 1010.5 |
| 20260505204720 | 58 | 208 | 4.0 | 6.0 | 0.00 | 0.00 | 0.00 | 42 | 1010.7 |
| 20260505204219 | 57 | 262 | 2.0 | 6.0 | 0.00 | 0.00 | 0.00 | 44 | 1010.8 |
| 20260505203715 | 57 | 263 | 5.0 | 6.0 | 0.00 | 0.00 | 0.00 | 41 | 1011.0 |
| 20260505203212 | 57 | 226 | 7.0 | 9.0 | 0.00 | 0.00 | 0.00 | 41 | 1010.9 |
| 20260505202708 | 57 | 297 | 2.0 | 2.0 | 0.00 | 0.00 | 0.00 | 43 | 1011.2 |
| 20260505202204 | 56 | 280 | 4.0 | 8.0 | 0.00 | 0.00 | 0.00 | 42 | 1011.1 |
| 20260505201701 | 57 | 313 | 2.0 | 7.0 | 0.00 | 0.00 | 0.00 | 42 | 1011.2 |
| 20260505201159 | 57 | 287 | 0.0 | 5.0 | 0.00 | 0.00 | 0.00 | 41 | 1011.2 |
| 20260505200657 | 57 | 263 | 1.0 | 5.0 | 0.00 | 0.00 | 0.00 | 42 | 1011.2 |
| 20260505200153 | 57 | 294 | 8.0 | 11.0 | 0.00 | 0.00 | 0.00 | 42 | 1011.4 |
| 20260505195649 | 58 | 282 | 3.0 | 7.0 | 0.00 | 0.00 | 0.00 | 43 | 1011.3 |
| 20260505195147 | 57 | 259 | 3.0 | 7.0 | 0.00 | 0.00 | 0.00 | 41 | 1011.3 |
| 20260505194644 | 57 | 286 | 6.0 | 9.0 | 0.00 | 0.00 | 0.00 | 42 | 1011.6 |
| 20260505194140 | 57 | 187 | 5.0 | 8.0 | 0.00 | 0.00 | 0.00 | 41 | 1011.7 |
| 20260505193636 | 57 | 291 | 7.0 | 9.0 | 0.00 | 0.00 | 0.00 | 41 | 1011.6 |
| 20260505193133 | 57 | 294 | 2.0 | 5.0 | 0.00 | 0.00 | 0.00 | 43 | 1011.7 |
| 20260505192632 | 58 | 317 | 5.0 | 8.0 | 0.00 | 0.00 | 0.00 | 41 | 1011.6 |
| 20260505192129 | 57 | 277 | 0.0 | 7.0 | 0.00 | 0.00 | 0.00 | 44 | 1011.6 |
| 20260505191628 | 57 | 250 | 4.0 | 7.0 | 0.00 | 0.00 | 0.00 | 43 | 1011.6 |
| 20260505191125 | 57 | 328 | 6.0 | 9.0 | 0.00 | 0.00 | 0.00 | 43 | 1011.6 |
| 20260505190621 | 58 | 296 | 5.0 | 9.0 | 0.00 | 0.00 | 0.00 | 41 | 1011.8 |
| 20260505190116 | 57 | 332 | 3.0 | 8.0 | 0.00 | 0.00 | 0.00 | 42 | 1011.6 |
| 20260505185613 | 58 | 323 | 2.0 | 3.0 | 0.00 | 0.00 | 0.00 | 42 | 1011.6 |
| 20260505185109 | 58 | 224 | 5.0 | 7.0 | 0.00 | 0.00 | 0.00 | 40 | 1011.7 |
| 20260505184606 | 57 | 224 | 2.0 | 10.0 | 0.00 | 0.00 | 0.00 | 42 | 1011.7 |
| 20260505184103 | 57 | 297 | 2.0 | 5.0 | 0.00 | 0.00 | 0.00 | 45 | 1011.8 |
| 20260505183559 | 57 | 7 | 6.0 | 9.0 | 0.00 | 0.00 | 0.00 | 45 | 1011.9 |
| 20260505183057 | 56 | 44 | 5.0 | 6.0 | 0.00 | 0.00 | 0.00 | 44 | 1011.8 |
| 20260505182553 | 56 | 337 | 1.0 | 5.0 | 0.00 | 0.00 | 0.00 | 48 | 1011.8 |
| 20260505182050 | 56 | 357 | 7.0 | 9.0 | 0.00 | 0.00 | 0.00 | 45 | 1011.8 |
| 20260505181547 | 56 | 321 | 2.0 | 5.0 | 0.00 | 0.00 | 0.00 | 47 | 1012.0 |
| 20260505181044 | 56 | 352 | 8.0 | 9.0 | 0.00 | 0.00 | 0.00 | 46 | 1011.9 |
| 20260505180539 | 57 | 316 | 3.0 | 3.0 | 0.00 | 0.00 | 0.00 | 47 | 1012.0 |
| 20260505180038 | 56 | 277 | 1.0 | 3.0 | 0.00 | 0.00 | 0.00 | 49 | 1012.1 |
| 20260505175537 | 56 | 251 | 3.0 | 5.0 | 0.00 | 0.00 | 0.00 | 48 | 1012.2 |
| 20260505175035 | 55 | 282 | 1.0 | 5.0 | 0.00 | 0.00 | 0.00 | 48 | 1012.2 |
| 20260505174532 | 55 | 318 | 4.0 | 7.0 | 0.00 | 0.00 | 0.00 | 49 | 1012.5 |
| 20260505174028 | 56 | 304 | 3.0 | 6.0 | 0.00 | 0.00 | 0.00 | 48 | 1012.1 |
| 20260505173525 | 57 | 280 | 4.0 | 7.0 | 0.00 | 0.00 | 0.00 | 48 | 1012.3 |
| 20260505173021 | 56 | 165 | 3.0 | 5.0 | 0.00 | 0.00 | 0.00 | 50 | 1012.1 |
| 20260505172519 | 54 | 266 | 4.0 | 9.0 | 0.00 | 0.00 | 0.00 | 49 | 1012.3 |
| 20260505172014 | 54 | 359 | 4.0 | 7.0 | 0.00 | 0.00 | 0.00 | 50 | 1012.4 |
| 20260505171505 | 55 | 306 | 5.0 | 8.0 | 0.00 | 0.00 | 0.00 | 48 | 1012.4 |
| 20260505171002 | 55 | 287 | 1.0 | 3.0 | 0.00 | 0.00 | 0.00 | 50 | 1012.4 |
| 20260505170459 | 55 | 238 | 7.0 | 8.0 | 0.00 | 0.00 | 0.00 | 46 | 1012.4 |
| 20260505165954 | 55 | 271 | 3.0 | 3.0 | 0.00 | 0.00 | 0.00 | 47 | 1012.4 |
| 20260505165450 | 54 | 342 | 5.0 | 7.0 | 0.00 | 0.00 | 0.00 | 48 | 1012.7 |
| 20260505164946 | 54 | 337 | 0.0 | 2.0 | 0.00 | 0.00 | 0.00 | 53 | 1012.7 |
| 20260505164442 | 54 | 345 | 5.0 | 6.0 | 0.00 | 0.00 | 0.00 | 51 | 1012.5 |
| 20260505163940 | 53 | 317 | 1.0 | 8.0 | 0.00 | 0.00 | 0.00 | 51 | 1012.7 |
| 20260505163439 | 53 | 356 | 4.0 | 8.0 | 0.00 | 0.00 | 0.00 | 50 | 1012.3 |
| 20260505162938 | 53 | 297 | 5.0 | 6.0 | 0.00 | 0.00 | 0.00 | 49 | 1012.4 |
| 20260505162433 | 53 | 51 | 4.0 | 6.0 | 0.00 | 0.00 | 0.00 | 50 | 1012.1 |
| 20260505161930 | 55 | 331 | 5.0 | 7.0 | 0.00 | 0.00 | 0.00 | 50 | 1012.3 |
| 20260505161427 | 54 | 243 | 2.0 | 2.0 | 0.00 | 0.00 | 0.00 | 49 | 1012.2 |
| 20260505160924 | 54 | 351 | 4.0 | 6.0 | 0.00 | 0.00 | 0.00 | 49 | 1012.3 |
| 20260505160422 | 53 | 323 | 2.0 | 3.0 | 0.00 | 0.00 | 0.00 | 50 | 1012.2 |
| 20260505153356 | 53 | 288 | 1.0 | 2.0 | 0.00 | 0.00 | 0.00 | 55 | 1012.1 |
| 20260505152852 | 52 | 305 | 1.0 | 2.0 | 0.00 | 0.00 | 0.00 | 55 | 1012.0 |
| 20260505152349 | 52 | 341 | 3.0 | 5.0 | 0.00 | 0.00 | 0.00 | 56 | 1012.0 |
| 20260505151844 | 53 | 0 | 1.0 | 2.0 | 0.00 | 0.00 | 0.00 | 57 | 1011.9 |
| 20260505151340 | 53 | 297 | 2.0 | 2.0 | 0.00 | 0.00 | 0.00 | 55 | 1012.1 |
| 20260505150831 | 52 | 288 | 0.0 | 1.0 | 0.00 | 0.00 | 0.00 | 56 | 1012.0 |
| 20260505150328 | 53 | 308 | 3.0 | 5.0 | 0.00 | 0.00 | 0.00 | 57 | 1012.0 |
| 20260505140241 | 50 | 256 | 1.0 | 2.0 | 0.00 | 0.00 | 0.00 | 63 | 1011.5 |
| 20260505130205 | 51 | 256 | 0.0 | 0.0 | 0.00 | 0.00 | 0.00 | 67 | 1010.7 |
| 20260505124655 | 50 | 142 | 2.0 | 2.0 | 0.00 | 0.00 | 0.00 | 73 | 1010.2 |
| 20260505124151 | 49 | 226 | 0.0 | 1.0 | 0.00 | 0.00 | 0.00 | 76 | 1010.4 |
| 20260505123647 | 48 | 226 | 0.0 | 0.0 | 0.00 | 0.00 | 0.00 | 81 | 1010.4 |
| 20260505123145 | 48 | 226 | 0.0 | 1.0 | 0.00 | 0.00 | 0.00 | 82 | 1010.5 |
| 20260505122641 | 48 | 226 | 0.0 | 1.0 | 0.00 | 0.00 | 0.00 | 85 | 1010.3 |
| 20260505122138 | 47 | 183 | 0.0 | 1.0 | 0.00 | 0.00 | 0.00 | 86 | 1010.8 |
| 20260505121634 | 46 | 128 | 0.0 | 0.0 | 0.00 | 0.00 | 0.00 | 88 | 1010.8 |
| 20260505121126 | 46 | 128 | 0.0 | 0.0 | 0.00 | 0.00 | 0.00 | 88 | 1010.7 |
| 20260505120621 | 46 | 257 | 0.0 | 0.0 | 0.00 | 0.00 | 0.00 | 88 | 1011.2 |
| 20260505120117 | 46 | 257 | 0.0 | 0.0 | 0.00 | 0.00 | 0.00 | 89 | 1011.1 |
| 20260505115612 | 45 | 257 | 0.0 | 0.0 | 0.00 | 0.00 | 0.00 | 90 | 1011.1 |
| 20260505115110 | 45 | 258 | 0.0 | 0.0 | 0.00 | 0.00 | 0.00 | 90 | 1011.0 |
| 20260505114607 | 45 | 258 | 0.0 | 0.0 | 0.00 | 0.00 | 0.00 | 90 | 1011.1 |
| 20260505114103 | 45 | 258 | 1.0 | 1.0 | 0.00 | 0.00 | 0.00 | 90 | 1011.0 |
| 20260505113559 | 45 | 258 | 0.0 | 0.0 | 0.00 | 0.00 | 0.00 | 90 | 1010.9 |
| 20260505113056 | 45 | 258 | 0.0 | 1.0 | 0.00 | 0.00 | 0.00 | 90 | 1011.0 |
| 20260505112552 | 45 | 258 | 0.0 | 0.0 | 0.00 | 0.00 | 0.00 | 89 | 1010.8 |
| 20260505112050 | 45 | 257 | 0.0 | 1.0 | 0.00 | 0.00 | 0.00 | 90 | 1011.2 |
| 20260505111544 | 45 | 257 | 1.0 | 2.0 | 0.00 | 0.00 | 0.00 | 89 | 1011.0 |
| 20260505111040 | 45 | 258 | 1.0 | 1.0 | 0.00 | 0.00 | 0.00 | 88 | 1011.2 |
| 20260505110537 | 45 | 258 | 1.0 | 1.0 | 0.00 | 0.00 | 0.00 | 88 | 1011.1 |
| 20260505102010 | 46 | 258 | 0.0 | 1.0 | 0.00 | 0.00 | 0.00 | 86 | 1010.3 |
| 20260505101508 | 46 | 258 | 0.0 | 0.0 | 0.00 | 0.00 | 0.00 | 85 | 1009.9 |
| 20260505101004 | 47 | 258 | 0.0 | 0.0 | 0.00 | 0.00 | 0.00 | 84 | 1009.8 |
| 20260505100501 | 47 | 258 | 0.0 | 0.0 | 0.00 | 0.00 | 0.00 | 84 | 1009.6 |
| 20260505095957 | 47 | 258 | 0.0 | 0.0 | 0.00 | 0.00 | 0.00 | 84 | 1009.5 |
| 20260505095454 | 47 | 258 | 0.0 | 1.0 | 0.00 | 0.00 | 0.00 | 85 | 1009.9 |
| 20260505094950 | 47 | 258 | 0.0 | 0.0 | 0.00 | 0.00 | 0.00 | 84 | 1009.9 |
| 20260505094447 | 47 | 258 | 0.0 | 0.0 | 0.00 | 0.00 | 0.00 | 83 | 1009.9 |
| 20260505093943 | 48 | 258 | 0.0 | 1.0 | 0.00 | 0.00 | 0.00 | 83 | 1010.0 |
| 20260505093440 | 47 | 258 | 0.0 | 0.0 | 0.00 | 0.00 | 0.00 | 82 | 1009.5 |
| 20260505092937 | 48 | 258 | 0.0 | 0.0 | 0.00 | 0.00 | 0.00 | 83 | 1009.4 |
| 20260505092435 | 48 | 256 | 0.0 | 2.0 | 0.00 | 0.00 | 0.00 | 82 | 1009.1 |
| 20260505091932 | 48 | 235 | 2.0 | 2.0 | 0.00 | 0.00 | 0.00 | 82 | 1009.1 |
| 20260505091430 | 48 | 290 | 1.0 | 1.0 | 0.00 | 0.00 | 0.00 | 82 | 1008.9 |
| 20260505090928 | 48 | 291 | 0.0 | 0.0 | 0.00 | 0.00 | 0.00 | 82 | 1008.9 |
| 20260505090426 | 47 | 291 | 0.0 | 1.0 | 0.00 | 0.00 | 0.00 | 82 | 1008.8 |
| 20260505085923 | 48 | 291 | 0.0 | 1.0 | 0.00 | 0.00 | 0.00 | 83 | 1008.3 |
| 20260505085420 | 48 | 286 | 1.0 | 1.0 | 0.00 | 0.00 | 0.00 | 83 | 1008.7 |
| 20260505084918 | 48 | 286 | 0.0 | 1.0 | 0.00 | 0.00 | 0.00 | 83 | 1008.9 |
| 20260505084416 | 48 | 286 | 0.0 | 0.0 | 0.00 | 0.00 | 0.00 | 81 | 1008.9 |
| 20260505083914 | 48 | 258 | 1.0 | 2.0 | 0.00 | 0.00 | 0.00 | 80 | 1009.1 |
| 20260505083411 | 48 | 259 | 1.0 | 2.0 | 0.00 | 0.00 | 0.00 | 81 | 1008.1 |
| 20260505082907 | 48 | 262 | 0.0 | 1.0 | 0.00 | 0.00 | 0.00 | 82 | 1008.0 |
| 20260505082403 | 48 | 258 | 1.0 | 2.0 | 0.00 | 0.00 | 0.00 | 80 | 1008.4 |
| 20260505081900 | 48 | 263 | 1.0 | 1.0 | 0.00 | 0.00 | 0.00 | 80 | 1008.9 |
| 20260505081357 | 48 | 262 | 1.0 | 1.0 | 0.00 | 0.00 | 0.00 | 80 | 1009.0 |
| 20260505080854 | 48 | 256 | 1.0 | 2.0 | 0.00 | 0.00 | 0.00 | 80 | 1009.1 |
| 20260505080350 | 48 | 292 | 1.0 | 2.0 | 0.00 | 0.00 | 0.00 | 77 | 1008.4 |
| 20260505075845 | 48 | 319 | 1.0 | 1.0 | 0.00 | 0.00 | 0.00 | 80 | 1007.8 |
| 20260505075342 | 48 | 350 | 0.0 | 1.0 | 0.00 | 0.00 | 0.00 | 79 | 1007.5 |
| 20260505074840 | 48 | 350 | 0.0 | 1.0 | 0.00 | 0.00 | 0.00 | 79 | 1007.6 |
| 20260505074337 | 48 | 350 | 0.0 | 2.0 | 0.00 | 0.00 | 0.00 | 77 | 1007.7 |
| 20260505073834 | 48 | 349 | 1.0 | 2.0 | 0.00 | 0.00 | 0.00 | 76 | 1007.6 |
| 20260505073332 | 48 | 8 | 4.0 | 5.0 | 0.00 | 0.00 | 0.00 | 74 | 1007.9 |
| 20260505072829 | 48 | 15 | 1.0 | 6.0 | 0.00 | 0.00 | 0.00 | 75 | 1008.0 |
| 20260505072325 | 48 | 347 | 3.0 | 5.0 | 0.00 | 0.00 | 0.00 | 73 | 1008.2 |
| 20260505071821 | 49 | 347 | 2.0 | 10.0 | 0.00 | 0.00 | 0.00 | 70 | 1008.0 |
| 20260505071317 | 49 | 354 | 3.0 | 6.0 | 0.00 | 0.00 | 0.00 | 68 | 1008.2 |
| 20260505070816 | 50 | 9 | 4.0 | 7.0 | 0.00 | 0.00 | 0.00 | 66 | 1008.3 |
| 20260505070312 | 50 | 25 | 6.0 | 10.0 | 0.00 | 0.00 | 0.00 | 63 | 1008.3 |
| 20260505065807 | 50 | 14 | 5.0 | 13.0 | 0.00 | 0.00 | 0.00 | 64 | 1008.3 |
| 20260505065304 | 50 | 340 | 10.0 | 15.0 | 0.00 | 0.00 | 0.00 | 63 | 1008.4 |
| 20260505064801 | 50 | 13 | 7.0 | 16.0 | 0.00 | 0.00 | 0.00 | 62 | 1008.1 |
| 20260505064258 | 51 | 29 | 11.0 | 16.0 | 0.00 | 0.00 | 0.00 | 61 | 1008.4 |
| 20260505063756 | 51 | 359 | 7.0 | 14.0 | 0.00 | 0.00 | 0.00 | 62 | 1008.5 |
| 20260505063252 | 51 | 10 | 6.0 | 8.0 | 0.00 | 0.00 | 0.00 | 61 | 1008.5 |
| 20260505062748 | 51 | 3 | 6.0 | 14.0 | 0.00 | 0.00 | 0.00 | 58 | 1008.0 |
| 20260505062241 | 52 | 6 | 9.0 | 10.0 | 0.00 | 0.00 | 0.00 | 58 | 1007.9 |
| 20260505061737 | 52 | 11 | 8.0 | 10.0 | 0.00 | 0.00 | 0.00 | 57 | 1008.4 |
| 20260505061235 | 52 | 264 | 6.0 | 9.0 | 0.00 | 0.00 | 0.00 | 54 | 1008.4 |
| 20260505060732 | 53 | 15 | 3.0 | 14.0 | 0.00 | 0.00 | 0.00 | 54 | 1008.5 |
| 20260505060229 | 53 | 343 | 9.0 | 13.0 | 0.00 | 0.00 | 0.00 | 53 | 1008.6 |
| 20260505055724 | 53 | 10 | 7.0 | 13.0 | 0.00 | 0.00 | 0.00 | 53 | 1008.6 |
| 20260505055221 | 53 | 2 | 8.0 | 10.0 | 0.00 | 0.00 | 0.00 | 52 | 1008.5 |
| 20260505054719 | 54 | 339 | 3.0 | 8.0 | 0.00 | 0.00 | 0.00 | 51 | 1008.5 |
| 20260505054216 | 54 | 344 | 5.0 | 13.0 | 0.00 | 0.00 | 0.00 | 49 | 1008.3 |
| 20260505053714 | 54 | 26 | 5.0 | 16.0 | 0.00 | 0.00 | 0.00 | 48 | 1008.0 |
| 20260505053210 | 54 | 354 | 6.0 | 8.0 | 0.00 | 0.00 | 0.00 | 49 | 1008.1 |
| 20260505052708 | 54 | 358 | 7.0 | 9.0 | 0.00 | 0.00 | 0.00 | 49 | 1007.8 |
| 20260505052204 | 54 | 338 | 8.0 | 13.0 | 0.00 | 0.00 | 0.00 | 49 | 1007.6 |
| 20260505051702 | 54 | 355 | 6.0 | 13.0 | 0.00 | 0.00 | 0.00 | 50 | 1007.7 |
| 20260505051159 | 54 | 330 | 7.0 | 16.0 | 0.00 | 0.00 | 0.00 | 50 | 1007.4 |
| 20260505050651 | 55 | 11 | 15.0 | 17.0 | 0.00 | 0.00 | 0.00 | 49 | 1006.9 |
| 20260505050149 | 55 | 21 | 14.0 | 16.0 | 0.00 | 0.00 | 0.00 | 49 | 1007.1 |
| 20260505041618 | 56 | 15 | 8.0 | 18.0 | 0.00 | 0.00 | 0.00 | 45 | 1007.1 |
| 20260505041115 | 56 | 15 | 10.0 | 14.0 | 0.00 | 0.00 | 0.00 | 45 | 1007.2 |
| 20260505040613 | 56 | 13 | 5.0 | 13.0 | 0.00 | 0.00 | 0.00 | 45 | 1007.1 |
| 20260505040110 | 56 | 8 | 6.0 | 8.0 | 0.00 | 0.00 | 0.00 | 44 | 1007.2 |